Location: Glums�
(55.3568°N, 11.6856°E)
Time: 18:50:55
(UTC+00:00)

Cosmos 2360 Rocket - Pass Details

Date: 07 June 2020
Orbit: 832 x 846 km, 71.0° (Epoch: 07 July)

Event Time Altitude Azimuth Distance (km) Brightness Sun altitude
Exits shadow 00:43:43 - 156° (SSE) 3,293 4.9 -9.5°
Reaches altitude 10° 00:46:40 10° 139° (SE) 2,447 4.4 -9.3°
Maximum altitude 00:50:14 18° 99° (E) 1,977 4.3 -9.1°
Drops below altitude 10° 00:53:49 10° 59° (ENE) 2,464 5.5 -8.9°
Sets 00:57:02 0° 41° (NE) 3,407 7.1 -8.7°
